DW4212 Weather Reports


time (UTC)temp
F
wind
direction
speed
knots
gust
knots
rain 1hr
in
rain 24hr
in
rain mn
in
humidity
%
barometer
mb
20260510210919 48 251 0.0 0.0 0.04 2.56 0.40 88 1014.2
20260510205928 48 251 0.0 3.5 0.04 2.64 0.40 87 1014.3
20260510204917 48 251 0.9 6.1 0.04 2.64 0.40 87 1014.2
20260510203927 49 250 0.9 7.0 0.04 2.64 0.40 86 1014.1
20260510202928 49 249 1.7 5.2 0.04 2.64 0.40 85 1013.9
20260510201922 49 259 1.7 6.1 0.00 2.60 0.39 85 1013.7
20260510200913 49 254 1.7 0.0 0.00 0.00 0.39 84 1013.3
20260510195914 49 257 2.6 7.8 0.00 2.80 0.39 83 1013.4
20260510194924 49 245 0.0 5.2 0.00 2.80 0.39 81 1013.2
20260510193918 49 238 0.0 3.5 0.00 2.80 0.39 81 1013.1
20260510192922 50 238 0.0 4.3 0.00 2.80 0.39 79 1012.9
20260510191928 50 240 0.0 1.7 0.00 2.80 0.39 79 1012.7
20260510190917 50 194 0.0 0.9 0.00 2.80 0.39 78 1012.7
20260510185926 51 183 0.9 6.1 0.00 2.80 0.39 77 1012.5
20260510184915 51 169 0.0 5.2 0.00 2.80 0.39 76 1012.5
20260510183925 52 189 0.0 0.0 0.00 2.80 0.39 75 1012.5
20260510182911 52 189 0.0 6.1 0.00 2.80 0.39 74 1012.5
20260510181920 53 159 0.9 7.0 0.00 2.80 0.39 72 1012.5
20260510180912 54 182 0.9 7.0 0.00 2.80 0.39 71 1012.4
20260510175916 55 182 1.7 5.2 0.00 3.23 0.39 68 1012.3
20260510174930 55 225 0.0 0.0 0.00 3.23 0.39 65 1012.3
20260510173918 56 245 0.9 6.1 0.00 3.23 0.39 63 1012.3
20260510172923 56 264 0.9 6.1 0.00 3.23 0.39 64 1012.3
20260510171913 56 254 0.0 4.3 0.00 3.23 0.39 65 1012.2
20260510170927 55 254 1.7 7.8 0.00 3.23 0.39 66 1012.1
20260510165910 54 252 1.7 9.6 0.00 3.23 0.39 66 1012.2
20260510164920 54 223 2.6 10.4 0.00 3.23 0.39 66 1012.4
20260510163910 54 174 3.5 11.3 0.00 3.23 0.39 66 1012.3
20260510162919 55 178 2.6 10.4 0.00 3.23 0.39 66 1012.3
20260510161928 56 185 2.6 8.7 0.00 3.23 0.39 66 1012.1
20260510160918 56 247 0.0 13.0 0.00 3.23 0.39 69 1012.1
20260510155923 55 152 5.2 12.2 0.00 3.39 0.39 71 1011.8
20260510154916 55 198 0.9 10.4 0.00 3.39 0.39 73 1011.7
20260510153927 54 165 3.5 9.6 0.00 3.39 0.39 77 1011.9
20260510152910 54 248 1.7 6.1 0.00 3.39 0.39 84 1012.0
20260510151924 52 198 0.9 6.1 0.00 3.39 0.39 86 1012.0
20260510150915 52 160 2.6 7.0 0.00 3.39 0.39 87 1012.0
20260510145920 52 246 3.5 11.3 0.00 3.39 0.39 89 1012.3
20260510144928 51 229 1.7 7.8 0.00 3.39 0.39 90 1012.3
20260510143922 51 195 2.6 7.0 0.00 3.39 0.39 90 1012.3
20260510142926 51 169 2.6 7.0 0.00 3.39 0.39 90 1012.1
20260510141916 51 161 2.6 7.8 0.00 3.39 0.39 90 1012.1
20260510140925 51 171 2.6 8.7 0.00 3.39 0.39 91 1012.1
20260510135928 51 170 2.6 12.2 0.00 3.54 0.39 91 1012.1
20260510133917 50 166 2.6 8.7 0.00 3.54 0.39 92 1012.1
20260510132921 50 172 0.9 8.7 0.00 3.54 0.39 92 1012.2
20260510131927 51 175 0.9 8.7 0.00 3.54 0.39 93 1012.3
20260510130914 50 160 0.9 6.1 0.00 3.54 0.39 93 1012.5
20260510125929 51 162 0.9 5.2 0.00 3.62 0.39 93 1012.5
20260510124917 50 161 0.0 5.2 0.00 3.62 0.39 93 1012.4
20260510123928 50 155 0.0 0.9 0.00 3.62 0.39 93 1012.3
20260510122930 50 155 0.0 7.0 0.00 3.62 0.39 93 1012.4
20260510121915 50 169 0.9 6.1 0.00 3.62 0.39 94 1012.4
20260510120924 49 177 0.0 4.3 0.04 3.62 0.39 94 1012.7
20260510115912 50 252 0.9 3.5 0.04 3.62 0.39 94 1012.8
20260510114921 51 254 0.0 6.1 0.16 3.62 0.39 94 1012.8
20260510113912 51 254 0.9 6.1 0.31 3.62 0.39 94 1012.4
20260510112916 50 251 0.9 4.3 0.79 3.62 0.39 94 1012.4
20260510111929 50 253 0.0 6.1 1.06 3.62 0.39 94 1012.4
20260510110918 49 243 0.9 7.8 1.10 3.58 0.39 95 1012.5
20260510105922 46 304 0.9 7.8 1.14 3.58 0.39 94 1012.4
20260510104916 46 254 3.5 8.7 0.98 3.43 0.35 94 1012.7
20260510103926 47 197 4.3 14.8 0.83 3.27 0.32 93 1012.7
20260510102930 48 148 0.9 5.2 0.39 2.83 0.24 94 1012.1
20260510101919 48 159 0.9 8.7 0.12 2.56 0.18 94 1012.3
20260510100914 49 182 0.0 9.6 0.04 2.44 0.16 94 1012.3
20260510095919 49 174 3.5 7.8 0.08 2.44 0.16 94 1012.4
20260510094928 49 175 0.9 7.8 0.12 2.44 0.16 94 1012.5
20260510093916 50 178 0.9 9.6 0.12 2.44 0.16 94 1012.4
20260510092925 49 206 2.6 8.7 0.16 2.44 0.16 94 1012.4
20260510091915 48 178 4.3 7.0 0.16 2.44 0.16 94 1012.7
20260510090923 48 145 2.6 7.8 0.12 2.40 0.15 94 1012.6
20260510085927 48 171 2.6 6.1 0.16 2.36 0.14 94 1012.6
20260510084920 48 174 1.7 7.8 0.16 2.32 0.13 94 1012.6
20260510083930 48 174 0.0 6.1 0.28 2.32 0.13 94 1012.7
20260510082920 47 186 0.9 5.2 0.28 2.28 0.13 94 1012.7
20260510081929 47 160 0.9 7.0 0.28 2.28 0.13 94 1012.7
20260510080924 47 153 2.6 7.0 0.28 2.28 0.13 94 1012.9
20260510075927 47 168 0.0 4.3 0.20 2.20 0.11 94 1013.0
20260510074922 47 187 0.9 5.2 0.12 2.13 0.09 94 1013.0
20260510073916 47 173 1.7 7.0 0.04 2.05 0.08 94 1013.0
20260510072919 47 180 0.9 5.2 0.00 2.01 0.07 94 1012.9
20260510071929 47 180 1.7 7.0 0.12 2.01 0.07 94 1013.0
20260510070919 47 176 0.9 4.3 0.20 2.01 0.07 94 1012.8
20260510065926 46 178 0.0 4.3 0.20 2.01 0.07 94 1012.8
20260510064912 46 178 0.0 2.6 0.20 2.01 0.07 94 1012.8
20260510063923 46 178 0.9 3.5 0.20 2.01 0.07 94 1012.8
20260510062926 46 178 0.0 5.2 0.20 2.01 0.07 94 1012.7
20260510061920 46 178 0.0 2.6 0.04 1.85 0.04 94 1012.6
20260510060930 46 178 0.0 2.6 0.00 1.81 0.03 94 1012.7
20260510055911 46 178 0.0 5.2 0.04 1.81 0.03 94 1012.6
20260510054920 46 177 1.7 5.2 0.04 1.81 0.03 94 1012.5
20260510053914 46 180 0.0 4.3 0.04 1.81 0.03 94 1012.4
20260510052918 46 182 0.0 5.2 0.04 1.81 0.03 94 1012.4
20260510051928 46 183 0.0 1.7 0.04 1.81 0.03 94 1012.4
20260510050916 46 184 0.0 0.0 0.04 1.81 0.03 94 1012.4
20260510045923 46 184 0.0 3.5 0.00 1.77 0.02 94 1012.4
20260510044911 46 185 0.0 0.0 0.04 1.77 0.02 94 1012.4
20260510043922 46 185 0.0 3.5 0.08 1.77 0.02 94 1012.4
20260510042925 46 185 0.0 4.3 0.08 1.77 0.02 94 1012.4
20260510041919 46 186 0.9 5.2 0.08 1.77 0.02 93 1012.4
20260510040910 46 216 0.0 0.0 0.08 1.77 0.02 94 1012.5
20260510035913 46 216 0.0 4.3 0.08 1.77 0.02 94 1012.6
20260510034923 46 220 0.0 4.3 0.04 1.73 0.02 94 1012.6
20260510033917 46 172 1.7 7.0 0.00 1.69 0.01 94 1012.6
20260510032920 46 172 0.0 7.0 0.00 1.69 0.01 93 1012.6
20260510031928 46 176 0.9 5.2 0.00 1.69 0.01 93 1012.7
20260510030922 46 177 0.0 0.0 0.00 1.69 0.01 93 1012.8
20260510025926 47 177 0.0 0.0 0.00 1.69 0.01 93 1012.8
20260510024915 47 177 0.0 5.2 0.00 1.69 0.01 93 1012.9
20260510023927 47 178 0.0 0.0 0.00 1.69 0.01 93 1012.9
20260510022914 47 178 0.0 1.7 0.00 1.69 0.01 93 1013.0
20260510021922 47 178 0.0 2.6 0.00 1.69 0.01 93 1013.0
20260510020913 47 179 0.0 6.1 0.00 1.69 0.01 93 1012.8
20260510015916 47 182 0.0 0.0 0.04 1.69 0.01 93 1013.0
20260510014925 47 182 0.0 0.0 0.04 1.69 0.01 93 1013.0
20260510013921 47 182 0.0 3.5 0.04 1.69 0.01 93 1012.9
20260510012925 47 182 0.0 0.0 0.04 1.69 0.01 93 1012.9
20260510011915 47 182 0.0 0.0 0.04 1.69 0.01 93 1013.0
20260510010929 47 182 0.0 0.0 0.04 1.69 0.01 93 1013.1
20260510005911 47 182 0.0 4.3 0.00 1.65 0.00 93 1013.2
20260510004921 47 167 0.0 5.2 0.00 1.65 0.00 93 1013.1
20260510003912 47 267 0.0 0.0 0.00 1.65 0.00 93 1013.3
20260510002920 47 267 0.0 0.0 0.00 1.65 0.00 93 1013.3
20260510001929 46 267 0.0 0.0 0.00 1.65 0.00 92 1013.3
20260510000917 46 267 0.0 3.5 0.00 1.65 0.00 92 1013.3
20260509235921 46 268 0.0 0.0 0.00 1.65 0.33 92 1013.3
20260509234913 46 268 0.0 0.0 0.00 1.65 0.33 92 1013.4
20260509233924 46 268 0.0 0.0 0.00 1.65 0.33 92 1013.4
20260509232926 46 268 0.0 0.0 0.00 1.65 0.33 92 1013.2
20260509231915 46 268 0.0 0.0 0.00 1.65 0.33 92 1013.3
20260509230911 46 268 0.0 0.0 0.00 1.65 0.33 92 1013.3
20260509225914 46 268 0.0 0.0 0.00 1.65 0.33 92 1013.3
20260509224924 46 268 0.0 0.0 0.00 1.65 0.33 92 1013.3
20260509223917 46 268 0.0 0.0 0.00 1.65 0.33 91 1013.0
20260509222922 46 268 0.0 0.0 0.08 1.65 0.33 92 1013.0
20260509221911 46 268 0.0 0.0 0.16 1.65 0.33 92 1013.1
20260509220918 46 268 0.0 0.0 0.35 1.65 0.33 92 1013.1
20260509215927 46 268 0.0 2.6 0.59 1.65 0.33 92 1012.8
20260509213927 46 267 2.6 7.0 0.63 1.65 0.33 92 1012.4
20260509212911 46 273 5.2 13.0 0.55 1.57 0.31 92 1012.5
20260509211925 47 248 7.8 17.4 0.43 1.46 0.29 92 1012.4